Погода в Каргополе

Погода в Каргополе : погода сейчас, прогноз погоды и архив. Всё, что Вы хотите узнать о погоде в Каргополе!

Хотите узнать прогноз погоды в Каргополе? Тогда Вам сюда: Погода в Каргополе

Поиск расширенной информации на нашем сайте:

Другие новости

Новости СМИ2

Главная страница сайта

Новости сайта

03.07.2017

Напоминаем, что на нашем специализированном сайте Метеоцентр.Азия вы можете получить высокодетализированные автоматические прогнозы погоды по пунктам России, СНГ и мира в авиационном формате (включающие направление и скорость ветра, видимость, явления погоды, количество и форму облачности, нижнюю и верхнюю границу облачности).


Погода в Каргополе - сегодня

Время (UTC), дата Ветер
(°,м/с) 
Видим.   Явления Облачность Т
(°С)
Тd
(°С)
f(%) Тe
(°С)
Pmin
(гПа)
dP
(гПа)
Po
(мм)
O2
(г/м3)
Тmin Tmax R s Состояние
почвы
15 19.07.17 230 (ЮЗ) 20000 м  {ливн. осадки}  9/5 600 м кучево-дожд., средняя, верхняя 
[Cb cap|Ac trans|Ci fib]
+14 +11.3 84 +17  1010.6  -0.3  747  284    +18.1  0.9     
18 19.07.17 230 (ЮЗ) 20000 м  {ливн. осадки}  10/10 630 м кучево-дожд. 
[Cb cap]
+12.2 +10.8 91 +15  1011.6  0.9  747  286           
21 19.07.17 210 (ЮЗ) 20000 м  {ливн. осадки}  10/8 1000 м средняя 
[Sc diur, vesp|Ac As]
+12.4 +12 97 +17  1011.4  -0.2  747  286           
00 20.07.17 200 (Ю) 20000 м  {ливн. осадки}  6/0 верхняя 
[Cc]
+9.7 +9.7 100 +12  1012.2  0.6  748  289           
03 20.07.17 220 (ЮЗ) 20000 м    3/0 верхняя 
[Cc]
+11.5 +10.3 92 +14  1012.2  0.1  748  287      0.0    мокрая 
06 20.07.17 200 (Ю) 20000 м    8/0 средняя 
[Ac trans]
+15.1 +10 72 +16  1012.1  0.1  748  284           
09 20.07.17 200 (Ю) 20000 м  в посл. час ливневой дождь  8/5 600 м кучево-дожд. 
[Cb cap]
+16.4 +10.7 69 +18  1011.7  -0.3  748  282           
12 20.07.17 210 (ЮЗ) 3{12}  20000 м  {ливн. осадки}  4/3 600 м кучево-дожд., верхняя 
[Cb cap|Ci ing]
+18.2 +10.7 62 +21  1011.1  -0.5  747  280           
15 20.07.17 200 (Ю) 20000 м    4/3 1000 м средняя, верхняя 
[Cu med, cong|Ac trans|Ci fib]
+17.8 +9.1 57 +18  1011.1  -0.1  747  281    +18.5  0.0     
18 20.07.17 190 (Ю) 20000 м    5/3 1000 м средняя, верхняя 
[Sc diur, vesp|Ac trans|Ci fib]
+14.8 +10.5 75 +18  1011.9  0.6  748  284           
21 20.07.17 160 (Ю) 20000 м    5/0 средняя, верхняя 
[Ac lent|Ci fib]
+11.4 +11.1 98 +16  1012.4  0.3  748  287           
00 21.07.17 140 (ЮВ) 20000 м    6/4 2000 м средняя, верхняя 
[Ac lent|Cs]
+9 +9 100 +10  1013.2  0.6  748  290           
03 21.07.17 тихо ()   20000 м    6/3 2000 м средняя, верхняя 
[Ac trans|Cc]
+12.4 +11.3 93 +15  1013.4  0.4  749  286  +7.3        влажная 
06 21.07.17 110 (В) 20000 м    8/3 600 м средняя, верхняя 
[Sc|Ac lent|Ci fib]
+17.5 +12.1 71 +23  1013.4  0.3  749  281           
09 21.07.17 060 (СВ) 20000 м    8/6 800 м кучево-дожд., верхняя 
[Cb cap|Ci fib]
+19.9 +11 56 +24  1013.1  -0.2  749  279           
12 21.07.17 030 (СВ) 20000 м  в посл. час ливневой дождь  8/5 600 м кучево-дожд., средняя, верхняя 
[Cb cap|Ac cuf|Ci fib]
+19.5 +10.3 55 +23  1012.9  -0.2  749  280           
15 21.07.17 020 (С) 20000 м    8/4 600 м кучево-дожд., верхняя 
[Cb cap|Ci ing]
+20.1 +9.4 50 +21  1012.6  -0.3  748  279    +20.9  0.0     
18 21.07.17 тихо ()   20000 м    10/4 1000 м верхняя 
[Sc|Ci fib]
+15.1 +12.7 86 +20  1013.8  749  284           
21 21.07.17 360 (С) 20000 м    10/5 1000 м верхняя 
[Sc|Ci fib]
+12.7 +11.7 94 +17  1014.3  749  286           
00 22.07.17 350 (С) 20000 м    9/9 1000 м 
[Sc]
+12.4 +11.6 95 +16  1014.4  -0.1  749  287           
03 22.07.17 340 (С) 20000 м    10/8 1000 м средняя, верхняя 
[Sc|Ac trans|Ci fib]
+12.8 +11.9 94 +17  1014.6  0.2  750  286  +11.8        влажная 
06 22.07.17 320 (СЗ) 20000 м    9/6 1000 м средняя 
[Sc|Ac trans]
+14.9 +12.7 87 +21  1014.9  0.4  750  284  +11.8         
09 22.07.17 280 (З) 20000 м  {дождь}  9/5 1000 м верхняя 
[Sc diur, vesp|Ci fib]
+17.3 +14.7 85 +26  1014.6  -0.2  750  281           
12 22.07.17 240 (ЮЗ) 20000 м  в посл. час ливневой дождь{гроза}  10/9 600 м кучево-дожд., верхняя 
[Cb cap|Ci fib]
+17.6 +16 90 +28  1013.5  -1  749  280           
15 22.07.17 320 (СЗ) 20000 м  гроза без осадков{ливн. осадки}  10/10 600 м кучево-дожд. 
[Cb cap]
+14.9 +14.2 96 +22  1013.3  -0.3  749  283    +17.9     
Время (UTC), дата Ветер
(°,м/с) 
Видим.   Явления Облачность Т
(°С)
Тd
(°С)
f(%) Тe
(°С)
Pmin
(гПа)
dP
(гПа)
Po
(мм)
O2
(г/м3)
Тmin Tmax R s Состояние
почвы

Для получения пояснительной информации подведите курсор к названию столбца.

ПОГОДА в Каргополе - архив

Всё, что Вы хотите узнать о погоде в Каргополе - удобно и подробно!

Выберите нужную дату (начиная с 1 января 2015* года) и нажмите кнопку "Найти".
Будут отображены архивные сводки погоды по пункту Каргополь, начиная с указанной даты.


Отображать данные в формате CSV (для использования в таблицах Excel)


Внимание! Наш архив погоды предназначен исключительно для личного некоммерческого использования в познавательных целях. Если Вам необходимы официальные справки о состоянии погоды (для производственных, юридических, коммерческих и т.п. целей), обращайтесь в органы Росгидромета.

*Примечание: данная дата относится к архиву по метеостанциям СССР (Россия, СНГ, Балтия).
Архив по метеостанциям Зарубежной Европы и Азии (кроме Китая) хранится 10 дней, по другим регионам земного шара (Китай, Африка, Америка, Австралия, Океания) - 1 день.

Каргополь - район местоположения метеостанции


Название, широта, долгота, высота метеостанции:
Каргополь 61.5°ш. 38.9°д. 126 м над ур. моря [Российская Федерация]

Дополнительная информация

В oтличие oт бoльшинства пoгoдных сайтoв мы публикуем пoдрoбную метеoинфoрмацию в детальнoм прoфессиoнальнoм фoрмате.

Характеристики температуры и влажнoсти вoздуха измеряются на высoте 2 м в тени вдали oт зданий и деревьев.
Скoрoсть ветра измеряется на высoте 10 м (на урoвне рoста челoвека скoрoсть ветра ниже в 1.5-2 раза). Если метеoстанция нахoдится в гoрoде или в лесу, тo скoрoсть ветра занижена на 2-4 м/с пo сравнению с oткрытым местoм. Скoрoсть ветра над акватoриями крупных рек и oзёр, а также на вершинах хoлмoв на 2-5 м/с выше, чем в oбычных услoвиях.
Атмoсфернoе давление в разных тoчках местнoсти мoжет значительнo oтличаться oт давления на метеoстанции, в зависимoсти oт услoвий рельефа (при пoдъёме на 10 м давление пoнижается примернo на 1 мм рт.ст.).